Meteo Giornale » Osservazioni meteo Italia » Venezia-Tessera

ore: 15:50 - Osservazioni Meteo Venezia-Tessera
Lat. 45° 30' N Lon. 12° 20' E Alt. 2 metri s.l.m.

coperto_pioggia Europe/Rome

21 °C

Pioggia Debole

Temp. 24 Ore

18 °C

24 °C

Est/Nord-Est

14.8 Km/h

Dew point 19 °C

Umidità 88 %

Visibilità  10 Km

Il sole sorge alle ore 06:52

Il sole tramonta alle ore 19:15

Data e Ora Cielo e Fenomeni T °C DP °C Um. % Pres. hPa Vis. km Vento km/h
Oggi h: 15:50 coperto_pioggia Pioggia Debole 21 19 88 1010 10 E/NE 14.8
Oggi h: 15:20 molto_nuvoloso Molto Nuvoloso 22 18 78 1010 10 E/NE 11.1
Oggi h: 14:50 molto_nuvoloso Molto Nuvoloso 22 18 78 1010 10 E 13
Oggi h: 14:20 molto_nuvoloso Rovescio nelle Vicinanze 23 18 73 1010 10 E/NE 11.1
Oggi h: 13:50 molto_nuvoloso Molto Nuvoloso 22 18 78 1011 10 E 9.3
Oggi h: 13:20 molto_nuvoloso Molto Nuvoloso 22 17 73 1011 10 E 9.3
Oggi h: 12:20 molto_nuvoloso Molto Nuvoloso 22 17 73 1012 10 E 9.3
Oggi h: 11:50 nuvoloso Nuvoloso 22 16 68 1012 10 E/NE 13
Oggi h: 11:20 nuvoloso Nuvoloso 21 15 68 1012 10 NE 11.1
Oggi h: 10:50 molto_nuvoloso Molto Nuvoloso 20 16 77 1012 10 NE 11.1
Oggi h: 10:20 molto_nuvoloso Molto Nuvoloso 20 15 72 1012 10 E/NE 11.1
Oggi h: 09:20 molto_nuvoloso Molto Nuvoloso 19 14 72 1012 10 E/NE 11.1
Oggi h: 08:50 molto_nuvoloso Molto Nuvoloso 19 14 72 1012 10 NE 11.1
Oggi h: 08:20 molto_nuvoloso Molto Nuvoloso 18 15 82 1012 10 NE 9.3
Oggi h: 07:50 molto_nuvoloso Molto Nuvoloso 18 14 77 1012 10 N/NE 9.3
Oggi h: 07:20 molto_nuvoloso Molto Nuvoloso 18 15 82 1011 10 NE 13
Oggi h: 06:50 molto_nuvoloso Molto Nuvoloso 18 15 82 1011 10 N/NE 11.1
Oggi h: 06:20 molto_nuvoloso Molto Nuvoloso 18 15 82 1011 10 N/NE 11.1
Oggi h: 05:50 molto_nuvoloso Molto Nuvoloso 18 16 88 1011 10 N/NE 11.1
Oggi h: 05:20 molto_nuvoloso Molto Nuvoloso 18 16 88 1011 10 NE 11.1
Oggi h: 04:50 molto_nuvoloso Molto Nuvoloso 18 16 88 1012 10 N/NE 11.1
Oggi h: 04:20 nuvoloso Nuvoloso 18 17 93 1012 10 NE 11.1
Oggi h: 03:50 coperto_pioggia Pioggia Debole 19 17 88 1012 10 NE 11.1
Oggi h: 03:20 molto_nuvoloso Molto Nuvoloso 19 17 88 1012 10 NE 13
Oggi h: 02:50 molto_nuvoloso Molto Nuvoloso 20 18 88 1012 10 E/NE 7.4
Oggi h: 02:20 molto_nuvoloso Molto Nuvoloso 20 18 88 1012 10 NE 7.4
Oggi h: 01:50 molto_nuvoloso Molto Nuvoloso 20 18 88 1012 10 N/NE 9.3
Oggi h: 01:20 molto_nuvoloso Molto Nuvoloso 20 18 88 1012 10 NE 11.1
Oggi h: 00:20 nuvoloso Nuvoloso 21 18 82 1012 10 E/NE 7.4
Ieri h: 23:50 nuvoloso Nuvoloso 21 18 82 1012 10 E/NE 7.4
Ieri h: 23:20 nuvoloso Nuvoloso 21 18 82 1012 10 N 3.7
Ieri h: 22:50 nuvoloso Nuvoloso 21 17 77 1012 10 N 3.7
Ieri h: 22:20 molto_nuvoloso Molto Nuvoloso 21 17 77 1012 10 N 5.5
Ieri h: 21:50 molto_nuvoloso Molto Nuvoloso 22 17 73 1012 10 N 3.7
Ieri h: 21:20 molto_nuvoloso Molto Nuvoloso 22 17 73 1012 10 N 3.7
Ieri h: 20:50 molto_nuvoloso Molto Nuvoloso 22 17 73 1012 10 N 3.7
Ieri h: 20:20 nuvoloso Nuvoloso 22 17 73 1012 10 N 3.7
Ieri h: 19:50 nuvoloso Nuvoloso 21 17 77 1012 10 N 3.7
Ieri h: 19:20 sereno Sereno 22 17 73 1011 10 N 5.5
Ieri h: 18:20 sereno Sereno 23 17 68 1012 10 N 5.5
Ieri h: 17:50 sereno Sereno 24 17 64 1012 10 S 7.4
Ieri h: 17:20 sereno Sereno 24 17 64 1012 10 S/SO 11.1
Ieri h: 16:50 sereno Sereno 24 17 64 1012 10 S 9.3